[[{"header":{"parameterUnit":"m.s-1","parameterCategory":1,"la1":30.2991,"la2":30.254,"lo1":-89.0895,"lo2":-89.0444,"dy":0.0017,"dx":0.0017,"nx":28,"ny":28,"refTime":"2025-03-19T21:00:00:Z","depth":0,"parameterNumber":2,"parameterNumberName":"U-component_of_WINDS"},"data":[0,0,0,0,0,0,0,0,0,0,0,0,0,0,0,0,0,0,0,0,0,0,0,0,0,0,0,0,0,0,0,0,0,0,0,0,0,0,0,0,0,0,0,0,0,0,0,0,0,0,0,0,0,0,0,0,0,0,0.189,0.189,0,0.1927,0.1927,0.1928,0.1984,0.1985,0.1986,0.1987,0.2026,0.2026,0.2026,0,0,0,0,0,0,0,0,0,0,0,0,0,0.1869,0.1869,0.1889,0.189,0.189,0.1927,0.1927,0.1928,0.1984,0.1985,0.1986,0.1987,0.2026,0.2026,0.2026,0,0,0,0,0,0,0,0,0,0,0,0,0,0.1889,0.1869,0.1889,0.1922,0.1926,0.1927,0.1927,0.1928,0.1983,0.1985,0.1986,0.1988,0.2026,0.2026,0.2027,0.1999,0,0,0.2027,0.2027,0,0,0,0,0,0,0,0,0.1888,0.189,0.1917,0.192,0.1924,0.1952,0.1935,0.1952,0.1983,0.1961,0.1987,0.1988,0.2,0.2003,0.2007,0.2,0.2002,0.2027,0.2027,0.2027,0.2027,0,0,0,0,0,0,0,0.1887,0.1889,0.1904,0.1918,0.1922,0.1937,0.1941,0.1938,0.1972,0.1963,0.1968,0.1971,0.2003,0.2006,0.2008,0.2003,0.2027,0.2027,0.2028,0.2028,0.1979,0.1978,0,0,0,0,0,0,0.188,0.1887,0.1903,0.1906,0.1909,0.1936,0.1941,0.1942,0.1973,0.1979,0.197,0.1974,0.2005,0.2008,0.201,0.1982,0.2027,0.2028,0.2028,0.1981,0.1979,0.1977,0,0,0,0,0,0,0.1879,0.1881,0.1902,0.1898,0.1901,0.1934,0.1935,0.1942,0.1945,0.1977,0.1984,0.1967,0.2007,0.2009,0.2002,0.1984,0.2028,0.2028,0.1982,0.198,0.1978,0.1923,0,0,0,0,0,0,0.1878,0.188,0.1869,0.1897,0.1901,0.1892,0.1934,0.1941,0.1946,0.1951,0.1977,0.1982,0.2008,0.2001,0.2002,0.1985,0.2028,0.1984,0.1981,0.1979,0.1927,0.192,0.1913,0,0,0,0,0,0.1878,0.1852,0.1868,0.187,0.1888,0.1891,0.1893,0.1923,0.1944,0.1934,0.1955,0.1982,0.1985,0.2,0.2001,0.1984,0.1985,0.1982,0.1979,0.193,0.1921,0.1914,0,0,0,0,0,0,0.1821,0.1856,0.1875,0.1857,0.187,0.19,0.1888,0.1912,0.192,0.1925,0.1961,0.1967,0.1955,0.1969,0.1984,0.196,0.199,0.1987,0.1952,0.1944,0.1937,0.1935,0.2028,0,0,0,0,0,0.1806,0.1805,0.1836,0.1817,0.1823,0.1854,0.1856,0.1878,0.1894,0.19,0.192,0.1935,0.194,0.1942,0.1948,0.1929,0.1937,0.1918,0.1911,0.1906,0.1903,0.1897,0.189,0.1967,0.1967,0.1967,0,0,0.1776,0.1795,0.1792,0.1806,0.1819,0.1819,0.1859,0.1855,0.1856,0.19,0.1894,0.191,0.1929,0.1916,0.1911,0.1927,0.1884,0.1902,0.1897,0.1897,0.1893,0.1886,0.1879,0.1965,0.1965,0.1966,0,0,0.1721,0.1734,0.1722,0.1734,0.1754,0.1775,0.1772,0.1799,0.1811,0.1806,0.184,0.1841,0.1848,0.1861,0.1869,0.1822,0.1848,0.1822,0.1787,0.1781,0.1775,0.177,0.1756,0.175,0.1819,0.1819,0.1819,0,0.1681,0.168,0.1712,0.1707,0.1714,0.1754,0.1743,0.1754,0.1774,0.1778,0.1795,0.1807,0.1822,0.1815,0.1803,0.1807,0.1807,0.182,0.1773,0.1768,0.1764,0.1751,0.1745,0.1816,0.1817,0.1817,0.1817,0,0.1632,0.1631,0.1619,0.1638,0.1643,0.1635,0.1667,0.1668,0.169,0.171,0.1706,0.1726,0.1739,0.1738,0.1759,0.1734,0.1744,0.1766,0.1797,0.1753,0.1742,0.1737,0.1812,0.1813,0.1814,0.1815,0,0,0.1542,0.158,0.1575,0.1586,0.1611,0.1612,0.1607,0.1619,0.1621,0.1634,0.1632,0.1638,0.166,0.1669,0.1691,0.1686,0.1651,0.171,0.1711,0.17,0.1628,0.1612,0.1606,0.1668,0.1667,0.1666,0.1627,0,0.1494,0.1486,0.1516,0.1501,0.1503,0.1542,0.1538,0.1554,0.1573,0.1578,0.1599,0.1604,0.1631,0.1637,0.1633,0.1655,0.1637,0.1658,0.1668,0.1668,0.1664,0.1599,0.1582,0.1544,0.1623,0.1622,0.1621,0,0.1436,0.1447,0.1433,0.1462,0.1463,0.1459,0.1474,0.1477,0.1497,0.1512,0.1523,0.155,0.1549,0.1577,0.1577,0.1592,0.1598,0.161,0.1609,0.1612,0.1643,0.1603,0.1533,0.1528,0.1614,0.1615,0.1615,0,0.1375,0.1386,0.138,0.1387,0.142,0.1417,0.143,0.1452,0.1458,0.1471,0.1476,0.1489,0.1497,0.1507,0.1538,0.1555,0.1536,0.1566,0.155,0.1549,0.1545,0.1545,0.1477,0.1545,0.1545,0.1545,0.1545,0,0.1319,0.1309,0.1353,0.1349,0.1341,0.1375,0.1366,0.1384,0.1403,0.1405,0.1439,0.144,0.148,0.1486,0.151,0.1509,0.1511,0.1525,0.1531,0.1523,0.1521,0.1528,0.1532,0.1544,0.1544,0.1544,0.1545,0,0.1249,0.1278,0.1274,0.1306,0.1314,0.1306,0.1334,0.1333,0.1355,0.1357,0.136,0.1394,0.1404,0.1435,0.1452,0.1468,0.1461,0.1472,0.1454,0.1458,0.1442,0.1444,0.1377,0.1371,0.1441,0.144,0.1439,0,0.1212,0.1206,0.1238,0.1241,0.1254,0.1259,0.1266,0.13,0.1306,0.133,0.1327,0.1339,0.1351,0.1365,0.1392,0.1406,0.142,0.1395,0.1422,0.1414,0.1422,0.1423,0.1424,0.139,0.1389,0.1388,0.1388,0,0.1145,0.116,0.1168,0.1182,0.119,0.1203,0.1217,0.1219,0.1257,0.1263,0.1273,0.1282,0.1301,0.1313,0.1332,0.1348,0.1375,0.1379,0.1377,0.1368,0.1359,0.1366,0.144,0.1381,0.1381,0.1382,0.1382,0.1383,0.1093,0.109,0.1112,0.1121,0.1136,0.115,0.1151,0.1174,0.1183,0.12,0.122,0.1228,0.1252,0.128,0.1294,0.1303,0.1317,0.1313,0.1312,0.1311,0.1308,0.1356,0.1306,0.1306,0.1306,0.1307,0.1307,0,0.1029,0.1046,0.1054,0.1074,0.1082,0.1105,0.1124,0.1129,0.1136,0.1155,0.1166,0.118,0.1193,0.1222,0.1238,0.124,0.1253,0.1243,0.1244,0.1248,0.1293,0.1294,0.1232,0.1232,0.1232,0.1233,0.1233,0.1233,0.0997,0.0995,0.1013,0.1019,0.1037,0.1045,0.1054,0.1067,0.1083,0.1096,0.1107,0.1126,0.115,0.1169,0.1183,0.1191,0.1197,0.1184,0.1196,0.1237,0.1245,0.1251,0.1253,0.1184,0.1184,0.1152,0.1151,0.1151]},{"header":{"parameterUnit":"m.s-1","parameterCategory":1,"la1":30.2991,"la2":30.254,"lo1":-89.0895,"lo2":-89.0444,"dy":0.0017,"dx":0.0017,"nx":28,"ny":28,"refTime":"2025-03-19T21:00:00:Z","depth":0,"parameterNumber":3,"parameterNumberName":"V-component_of_WINDS"},"data":[0,0,0,0,0,0,0,0,0,0,0,0,0,0,0,0,0,0,0,0,0,0,0,0,0,0,0,0,0,0,0,0,0,0,0,0,0,0,0,0,0,0,0,0,0,0,0,0,0,0,0,0,0,0,0,0,0,0,4.4459,4.4457,0,4.4275,4.4273,4.4271,4.4255,4.4257,4.4258,4.426,4.4065,4.4058,4.4051,0,0,0,0,0,0,0,0,0,0,0,0,0,4.479,4.4784,4.4459,4.4457,4.4455,4.4276,4.4273,4.4271,4.4254,4.4257,4.4259,4.4261,4.4067,4.4059,4.405,0,0,0,0,0,0,0,0,0,0,0,0,0,4.463,4.4782,4.446,4.4425,4.442,4.4276,4.4273,4.427,4.4254,4.4257,4.426,4.4262,4.407,4.4059,4.4049,4.3924,0,0,4.4017,4.4012,0,0,0,0,0,0,0,0,4.4639,4.4618,4.4432,4.4427,4.4421,4.4291,4.4318,4.4154,4.4253,4.4317,4.426,4.4264,4.4137,4.4121,4.408,4.3915,4.3907,4.4016,4.4009,4.4005,4.4002,0,0,0,0,0,0,0,4.465,4.4626,4.4386,4.443,4.4423,4.4417,4.4397,4.4287,4.4212,4.4311,4.431,4.4289,4.4134,4.409,4.4075,4.3904,4.4016,4.4006,4.4,4.3996,4.3628,4.3625,0,0,0,0,0,0,4.4669,4.4635,4.4392,4.4381,4.454,4.4408,4.4387,4.433,4.4213,4.4199,4.4286,4.4289,4.4107,4.4087,4.4068,4.3915,4.4005,4.3995,4.3989,4.3632,4.3628,4.3624,0,0,0,0,0,0,4.4676,4.4647,4.4399,4.4507,4.4475,4.44,4.4336,4.4325,4.428,4.4195,4.4181,4.4255,4.4108,4.4083,4.3961,4.3908,4.399,4.398,4.3636,4.363,4.3626,4.3608,0,0,0,0,0,0,4.4685,4.465,4.4603,4.4507,4.447,4.4297,4.4333,4.4319,4.4263,4.4264,4.4162,4.4147,4.4109,4.3977,4.395,4.3895,4.3972,4.364,4.3633,4.3627,4.3613,4.3603,4.3595,0,0,0,0,0,4.4697,4.4604,4.4601,4.4572,4.441,4.4294,4.4273,4.4233,4.4259,4.421,4.4155,4.415,4.3919,4.3964,4.3934,4.3875,4.3643,4.3635,4.3628,4.3617,4.3605,4.3595,0,0,0,0,0,0,4.4693,4.459,4.4586,4.4459,4.4386,4.4292,4.4229,4.4221,4.4136,4.4141,4.4092,4.4069,4.3949,4.3899,4.3953,4.3749,4.3783,4.3769,4.3786,4.3773,4.3764,4.3778,4.3963,0,0,0,0,0,4.4678,4.4595,4.4508,4.4404,4.4368,4.4305,4.4253,4.4229,4.415,4.4118,4.4054,4.3976,4.3885,4.3826,4.3738,4.3606,4.3583,4.3551,4.3541,4.3534,4.3522,4.3449,4.3434,4.3599,4.3599,4.3599,0,0,4.4644,4.4578,4.4528,4.4402,4.4342,4.4255,4.4279,4.4186,4.412,4.4103,4.3985,4.3935,4.3844,4.3717,4.3658,4.3672,4.3472,4.3524,4.3519,4.3511,4.344,4.3424,4.3411,4.3593,4.3594,4.3595,0,0,4.454,4.4481,4.4389,4.433,4.424,4.4199,4.4177,4.4084,4.4052,4.3933,4.3919,4.3839,4.3684,4.362,4.3568,4.344,4.3433,4.3413,4.3364,4.3293,4.328,4.3269,4.3223,4.3208,4.3401,4.3401,4.3401,0,4.4509,4.438,4.4342,4.4249,4.4194,4.4178,4.4083,4.4026,4.3911,4.3873,4.3892,4.3698,4.3636,4.3494,4.3463,4.3421,4.3393,4.3424,4.3286,4.3274,4.3262,4.3218,4.3201,4.34,4.34,4.34,4.34,0,4.4346,4.4257,4.4192,4.4086,4.4023,4.393,4.3876,4.3817,4.3798,4.3755,4.3634,4.3559,4.3456,4.342,4.3399,4.3275,4.3287,4.3296,4.333,4.3245,4.3203,4.3186,4.3397,4.3398,4.3398,4.3399,0,0,4.4232,4.4108,4.4085,4.4037,4.3938,4.3866,4.3772,4.3674,4.3624,4.3546,4.3465,4.3335,4.3344,4.3284,4.3256,4.3194,4.3099,4.3211,4.3208,4.3193,4.2957,4.2951,4.2932,4.3094,4.309,4.3087,4.2965,0,4.4117,4.3952,4.3915,4.3772,4.3689,4.3672,4.359,4.3519,4.3476,4.3398,4.3349,4.3258,4.3276,4.3241,4.3179,4.3124,4.3051,4.3132,4.3016,4.3013,4.304,4.291,4.2903,4.2791,4.2948,4.2945,4.2943,0,4.3959,4.3881,4.373,4.3644,4.3607,4.3534,4.3442,4.3368,4.3287,4.326,4.3195,4.3174,4.3073,4.3112,4.2973,4.3029,4.298,4.2946,4.294,4.2928,4.2973,4.2894,4.2754,4.2738,4.2917,4.2919,4.2921,0,4.3892,4.3748,4.364,4.3599,4.3495,4.3444,4.3398,4.3321,4.3264,4.3183,4.3146,4.3053,4.3002,4.2929,4.2883,4.2916,4.2747,4.2783,4.2721,4.2722,4.2686,4.2689,4.2536,4.2654,4.2654,4.2655,4.2655,0,4.3767,4.3675,4.3609,4.3542,4.3439,4.3398,4.3296,4.3249,4.318,4.3103,4.3082,4.3009,4.2953,4.2872,4.2835,4.2726,4.2702,4.2677,4.2668,4.2679,4.2682,4.2645,4.2652,4.265,4.2651,4.2652,4.2653,0,4.3674,4.3626,4.3507,4.342,4.3395,4.3323,4.3247,4.3181,4.3138,4.3041,4.3015,4.2947,4.2851,4.2798,4.2676,4.2652,4.2529,4.2524,4.2558,4.2554,4.2496,4.2502,4.2314,4.2287,4.2423,4.2422,4.2421,0,4.3598,4.3528,4.3433,4.3382,4.3336,4.3252,4.3195,4.3151,4.3093,4.2996,4.2941,4.2845,4.2765,4.2612,4.255,4.2457,4.245,4.2391,4.2436,4.2449,4.2449,4.2454,4.2447,4.2383,4.2381,4.238,4.238,0,4.3467,4.3448,4.3368,4.3281,4.3215,4.3143,4.3071,4.3029,4.2973,4.2908,4.2812,4.275,4.2628,4.2532,4.2434,4.2384,4.2372,4.2366,4.2347,4.2357,4.238,4.2367,4.2536,4.237,4.2371,4.2372,4.2372,4.2373,4.338,4.3318,4.3242,4.3155,4.3097,4.3032,4.2966,4.2916,4.2835,4.2734,4.2712,4.261,4.253,4.2399,4.2346,4.2264,4.2275,4.2248,4.2241,4.2235,4.2233,4.2393,4.2246,4.2246,4.2246,4.2247,4.2247,0,4.3249,4.3201,4.3121,4.3023,4.2954,4.2952,4.2873,4.2815,4.2726,4.2654,4.2577,4.2466,4.2373,4.2305,4.221,4.2157,4.2149,4.2133,4.2137,4.2126,4.2228,4.2254,4.2142,4.2142,4.2142,4.2142,4.2142,4.2142,4.3173,4.3067,4.3039,4.2904,4.2855,4.2757,4.2712,4.2651,4.2594,4.2471,4.2395,4.2352,4.2282,4.2181,4.2096,4.2078,4.2044,4.2029,4.201,4.2107,4.2118,4.2129,4.2154,4.2022,4.2021,4.1915,4.1914,4.1913]}]]